Location: Blandford
(50.8667°N, 2.1667°W)
Time: 17:50:21
(UTC+00:00)

BREEZE M DEB (TANK) - Pass Details

Date: 09 April 2020
Orbit: 313 x 13666 km, 49.6° (Epoch: 23 May)

Event Time Altitude Azimuth Distance (km) Brightness Sun altitude
Rises 20:37:08 0° 244° (WSW) 6,428 8.6 -15.4°
Reaches altitude 10° 20:43:04 10° 242° (WSW) 3,866 7.4 -16.2°
Maximum altitude 20:50:26 53° 167° (SSE) 792 3.3 -17.1°
Enters shadow 20:51:30 37° 113° (ESE) 858 3.3 -17.3°
